Torna al catalogo

CZ-6A DEB

AttivoSSO
NORAD 55874·DEBRIS·🇨🇳 China

Lanciato Nov 11, 2022 da Taiyuan Satellite Launch Center

Loading…

Prossimi Passaggi (prossime 24 ore)

TLE

AggiornatoSource: Space-Track

Epoca: Sep 14, 2026, 10:08 UTC

1 55874U 22151ZW  26257.42239613  .00001904  00000-0  98865-3 0  9995
2 55874  98.8381 251.2187 0066756  88.0326 272.8490 14.14784441185421

Traccia CZ-6A DEB in tempo reale con AllMySat

Download on the App Store